TimeEST,TemperatureF,Dew PointF,Humidity,Sea Level PressureIn,VisibilityMPH,Wind Direction,Wind SpeedMPH,Gust SpeedMPH,PrecipitationIn,Events,Conditions,WindDirDegrees,DateUTC
12:53 AM,34.0,28.9,82,30.22,10.0,SSE,5.8,-,N/A,,Clear,150,2011-11-06 04:53:00
1:53 AM,36.0,30.9,82,30.21,10.0,SSE,8.1,-,N/A,,Clear,160,2011-11-06 05:53:00
1:53 AM,39.0,30.9,73,30.20,10.0,South,8.1,-,N/A,,Clear,170,2011-11-06 06:53:00
2:53 AM,39.0,30.0,70,30.20,10.0,South,6.9,-,N/A,,Clear,170,2011-11-06 07:53:00
3:53 AM,37.9,28.0,68,30.20,10.0,SSE,6.9,-,N/A,,Clear,160,2011-11-06 08:53:00
4:53 AM,45.0,28.9,53,30.21,10.0,South,9.2,-,N/A,,Clear,180,2011-11-06 09:53:00
5:53 AM,44.1,28.0,53,30.22,10.0,South,6.9,-,N/A,,Clear,190,2011-11-06 10:53:00
6:53 AM,43.0,28.0,56,30.22,10.0,South,9.2,-,N/A,,Clear,180,2011-11-06 11:53:00
7:53 AM,44.1,30.0,58,30.22,10.0,South,10.4,-,N/A,,Clear,180,2011-11-06 12:53:00
8:53 AM,48.0,32.0,54,30.22,10.0,South,11.5,19.6,N/A,,Clear,190,2011-11-06 13:53:00
9:53 AM,52.0,35.1,53,30.19,10.0,South,10.4,-,N/A,,Clear,180,2011-11-06 14:53:00
10:53 AM,57.0,37.9,49,30.18,10.0,South,11.5,18.4,N/A,,Clear,190,2011-11-06 15:53:00
11:53 AM,60.1,41.0,49,30.16,10.0,South,11.5,19.6,N/A,,Clear,190,2011-11-06 16:53:00
12:53 PM,61.0,41.0,48,30.13,10.0,SSW,13.8,24.2,N/A,,Clear,200,2011-11-06 17:53:00
1:53 PM,62.1,41.0,46,30.11,10.0,South,18.4,26.5,N/A,,Clear,190,2011-11-06 18:53:00
2:53 PM,62.1,41.0,46,30.08,10.0,South,15.0,24.2,N/A,,Clear,190,2011-11-06 19:53:00
3:53 PM,62.1,41.0,46,30.07,10.0,South,17.3,25.3,N/A,,Clear,190,2011-11-06 20:53:00
4:53 PM,60.1,39.9,47,30.07,10.0,SSW,15.0,20.7,N/A,,Clear,200,2011-11-06 21:53:00
5:53 PM,57.9,41.0,53,30.11,10.0,SSW,9.2,-,N/A,,Clear,200,2011-11-06 22:53:00
6:53 PM,59.0,41.0,51,30.12,10.0,South,11.5,-,N/A,,Overcast,190,2011-11-06 23:53:00
7:53 PM,57.0,41.0,55,30.10,10.0,South,15.0,20.7,N/A,,Mostly Cloudy,190,2011-11-07 00:53:00
8:53 PM,55.9,39.9,55,30.11,10.0,SSW,12.7,20.7,N/A,,Scattered Clouds,200,2011-11-07 01:53:00
9:53 PM,57.0,41.0,55,30.12,10.0,SSW,10.4,-,N/A,,Overcast,210,2011-11-07 02:53:00
10:53 PM,57.9,41.0,53,30.12,10.0,SSW,11.5,20.7,N/A,,Overcast,210,2011-11-07 03:53:00